Regional Weather Roundup
Issued by NWS

Home | Current Version | Previous Version | Graphics & Text | Print | Product List | Glossary On
Versions: 1 2 3 4 5 6 7 8 9 10 11 12 13 14 15 16 17 18 19 20 21 22 23 24 25 26 27 28 29 30 31 32 33 34 35 36 37 38 39 40 41 42 43 44 45 46 47 48 49 50
000
ASUS43 KOAX 231310
RWRNE

WEATHER ROUNDUP FOR NEBRASKA
NATIONAL WEATHER SERVICE OMAHA NE
800 AM CDT SAT AUG 23 2014

NOTES: SATELLITE DATA IS BEING USED TO AUGMENT CLOUD COVER ABOVE
       12000 FEET.
       "FAIR" INDICATES FEW OR NO CLOUDS BELOW 12,000 FEET WITH NO
       SIGNIFICANT WEATHER AND/OR OBSTRUCTIONS TO VISIBILITY.

  * THESE STATIONS DO NOT REPORT WEATHER SUCH AS RAIN...SNOW OR FOG.

NEZ001>004-019>022-054>056-231400-
NEBRASKA PANHANDLE

CITY           SKY/WX    TMP DP  RH WIND       PRES   REMARKS
SCOTTSBLUFF    PTCLDY    61  60  97 E7        29.92S
ALLIANCE       CLOUDY    61  59  93 CALM      29.91S
CHADRON        MOCLDY    62  60  93 CALM      29.89S
KIMBALL        CLOUDY    60  59  97 CALM      29.94S
SIDNEY         FOG       62  61  96 CALM      29.93F VSB 1/4
$$

NEZ057>060-069>072-079>082-231400-
SOUTHWEST NEBRASKA

CITY           SKY/WX    TMP DP  RH WIND       PRES   REMARKS
NORTH PLATTE   PTSUNNY   67  65  93 NE5       29.88F
IMPERIAL       PTCLDY    65  64  97 E7        29.88S FOG
LEXINGTON      CLOUDY    67  66  95 E6        29.88S
MCCOOK         CLOUDY    67  65  93 NE6       29.87S FOG
OGALLALA       PTCLDY    62  62  98 CALM      29.88S FOG
$$

NEZ005>010-023>029-035>040-094-231400-
NORTH CENTRAL NEBRASKA

CITY           SKY/WX    TMP DP  RH WIND       PRES   REMARKS
VALENTINE      CLOUDY    66  65  96 E7        29.87S
AINSWORTH      CLOUDY    66  66  98 E7        29.89F
BROKEN BOW     CLOUDY    67  66  97 E6        29.90F
O`NEILL        CLOUDY    68  67  98 CALM      29.90F
ORD            CLOUDY    67  65  93 NW3       29.88F
THEDFORD       CLOUDY    67  66  97 SE3       29.90F
$$

NEZ041-046>049-061>064-073>077-083>087-231400-
SOUTH CENTRAL NEBRASKA

CITY           SKY/WX    TMP DP  RH WIND       PRES   REMARKS
GRAND ISLAND   MOSUNNY   70  66  87 SE9       29.87R
AURORA         CLOUDY    69  69 100 SE13      29.86S
HASTINGS       MOSUNNY   69  64  84 SE15      29.87R
HEBRON         CLOUDY    69  65  88 E9        29.87R
HOLDREGE       CLOUDY    69  67  93 SE13      29.87R
KEARNEY *      PTSUNNY   66  66 100 E9        29.87F
YORK           CLOUDY    68 N/A N/A SE12      29.87S
$$

NEZ011>018-030>034-042>045-231400-
NORTHEAST NEBRASKA

CITY           SKY/WX    TMP DP  RH WIND       PRES   REMARKS
NORFOLK        CLOUDY    68  66  93 E7        29.88S
ALBION         PTSUNNY   66  64  93 E3        29.89S
BLAIR          CLOUDY    71  68  90 E10       29.88S
FREMONT        CLOUDY    70  68  94 E5        29.88R
TEKAMAH        CLOUDY    70  68  93 CALM      29.88R
WAYNE          CLOUDY    69  67  94 E6        29.90R
$$

NEZ050>053-065>068-078-088>093-231400-
SOUTHEAST NEBRASKA

CITY           SKY/WX    TMP DP  RH WIND       PRES   REMARKS
LINCOLN        PTSUNNY   71  67  87 SE6       29.87S
OMAHA EPPLEY   CLOUDY    72  67  84 VRB6      29.88S
BEATRICE       MOSUNNY   70  69  96 SE12      29.88S
FALLS CITY     PTSUNNY   72  70  93 E8        29.90R
NEBRASKA CITY  CLOUDY    71  71 100 SE9G16    29.89R
PLATTSMOUTH    CLOUDY    72  69  89 E6        29.89R
$$

NEZ044-045-051>053-067-231400-
OMAHA AREA

CITY           SKY/WX    TMP DP  RH WIND       PRES   REMARKS
OMAHA EPPLEY   CLOUDY    72  67  84 VRB6      29.88S
BLAIR          CLOUDY    71  68  90 E10       29.88S
FREMONT        CLOUDY    70  68  94 E5        29.88R
MILLARD        CLOUDY    72  68  89 SE7       29.87S
OFFUTT AFB     CLOUDY    72  71  99 E6        29.87S
PLATTSMOUTH    CLOUDY    72  69  89 E6        29.89R
WAHOO          FAIR      69  66  91 CALM      29.87S
$$


USA.gov is the U.S. government's official web portal to all federal, state and local government web resources and services.